Location: *
(37.5724°S, 58.0067°E)
Time: 10:37:28
(UTC+00:00)

SeaSat 1 - Pass Details

Date: 26 September 2020
Orbit: 744 x 748 km, 108.0° (Epoch: 29 October)

Event Time Altitude Azimuth Distance (km) Brightness Sun altitude
Rises 16:17:17 0° 166° (SSE) 3,220 5.9 -25.6°
Reaches altitude 10° 16:19:47 10° 176° (S) 2,289 5.2 -26.1°
Maximum altitude 16:24:05 30° 236° (SW) 1,322 4.3 -26.8°
Drops below altitude 10° 16:28:22 10° 296° (WNW) 2,267 5.4 -27.6°
Sets 16:30:50 0° 306° (NW) 3,184 6.0 -28.0°
